GW6027 Weather Reports


Display with metric or nautical units.
time (UTC)temp
F
wind
direction
speed
MPH
gust
MPH
rain 1hr
in
rain 24hr
in
rain mn
in
humidity
%
barometer
mb
20260504231151 60 127 2.0 5.0 0.00 0.00 0.00 67 1012.6
20260504225423 60 146 4.0 4.0 0.00 0.00 0.00 67 1012.7
20260504223802 61 162 1.0 2.0 0.00 0.00 0.00 66 1012.6
20260504221920 62 44 0.0 4.0 0.00 0.00 0.00 63 1012.4
20260504220053 63 44 2.0 5.0 0.00 0.00 0.00 63 1012.4
20260504214035 63 52 3.0 6.0 0.00 0.00 0.00 62 1012.5
20260504212417 63 42 2.0 6.0 0.00 0.00 0.00 62 1012.7
20260504210753 63 49 2.0 6.0 0.00 0.00 0.00 61 1012.8
20260504205130 63 38 3.0 5.0 0.00 0.00 0.00 59 1012.9
20260504203953 64 353 0.0 3.0 0.00 0.00 0.00 57 1013.0
20260504202548 63 318 0.0 4.0 0.00 0.00 0.00 58 1013.0
20260504200559 64 309 1.0 3.0 0.00 0.00 0.00 56 1012.9
20260504195046 67 105 3.0 3.0 0.00 0.00 0.00 49 1012.8
20260504193753 67 57 1.0 3.0 0.00 0.00 0.00 50 1012.7
20260504192138 67 88 3.0 3.0 0.00 0.00 0.00 50 1012.7
20260504190626 67 91 3.0 4.0 0.00 0.00 0.00 50 1012.5
20260504185117 67 110 2.0 3.0 0.00 0.00 0.00 50 1012.3
20260504183710 68 92 3.0 4.0 0.00 0.00 0.00 49 1012.3
20260504182201 68 98 4.0 5.0 0.00 0.00 0.00 48 1012.2
20260504180651 68 106 4.0 5.0 0.00 0.00 0.00 49 1012.2
20260504174810 68 91 4.0 6.0 0.00 0.00 0.00 48 1012.3
20260504173148 69 90 3.0 5.0 0.00 0.00 0.00 48 1012.3
20260504171545 69 75 1.0 4.0 0.00 0.00 0.00 49 1012.3
20260504160348 71 42 3.0 5.0 0.00 0.00 0.00 44 1012.7
20260504150127 73 38 3.0 6.0 0.00 0.00 0.00 42 1013.0
20260504140133 72 133 2.0 6.0 0.00 0.00 0.00 43 1013.3
20260504130239 72 47 3.0 8.0 0.00 0.00 0.00 43 1013.9
20260504120309 71 49 4.0 7.0 0.00 0.00 0.00 43 1014.3
20260504100141 68 281 4.0 8.0 0.00 0.00 0.00 48 1015.5
20260504081630 62 97 2.0 7.0 0.00 0.00 0.00 53 1015.5
20260504044632 49 298 3.0 5.0 0.00 0.00 0.00 74 1014.8
20260504043030 52 295 1.0 2.0 0.00 0.00 0.00 69 1014.4
20260504041536 51 76 1.0 3.0 0.00 0.00 0.00 70 1014.2
20260504040020 51 67 1.0 6.0 0.00 0.00 0.00 69 1014.0
20260504034623 53 17 3.0 4.0 0.00 0.00 0.00 65 1014.1
20260504033010 53 315 1.0 2.0 0.00 0.00 0.00 66 1014.4
20260504031514 53 316 0.0 1.0 0.00 0.00 0.00 66 1014.4
20260504030109 53 314 0.0 2.0 0.00 0.00 0.00 67 1014.4
20260504024520 54 333 0.0 2.0 0.00 0.00 0.00 65 1014.5
20260504023026 53 333 0.0 3.0 0.00 0.00 0.00 67 1014.3
20260504021510 53 304 3.0 5.0 0.00 0.00 0.00 68 1014.4
20260504020011 54 293 4.0 5.0 0.00 0.00 0.00 66 1014.3
20260504014518 55 297 2.0 3.0 0.00 0.00 0.00 65 1014.2
20260504013127 55 302 1.0 3.0 0.00 0.00 0.00 64 1014.0
20260504011526 56 36 0.0 1.0 0.00 0.00 0.00 59 1013.9
20260504010010 57 126 0.0 1.0 0.00 0.00 0.00 59 1013.8
20260504004534 57 88 1.0 5.0 0.00 0.00 0.00 58 1013.8
20260504003019 57 63 0.0 1.0 0.00 0.00 0.00 59 1013.8
20260504001532 56 288 0.0 2.0 0.00 0.00 0.00 59 1013.8
20260504000024 57 287 3.0 3.0 0.00 0.00 0.00 59 1013.8
20260503234546 58 90 1.0 7.0 0.00 0.00 0.00 57 1013.6
20260503233018 59 45 4.0 5.0 0.00 0.00 0.00 55 1013.5